Location: Fazenda Monte Alegre
(4.8500°S, 38.0333°W)
Time: 17:07:21
(UTC+00:00)

CZ-4 R/B - Pass Details

Date: 24 September 2020
Orbit: 581 x 588 km, 97.8° (Epoch: 25 October)

Event Time Altitude Azimuth Distance (km) Brightness Sun altitude
Rises 21:19:07 0° 168° (SSE) 2,803 7.8 -13.7°
Reaches altitude 10° 21:21:16 10° 167° (SSE) 1,900 6.9 -14.2°
Maximum altitude 21:25:23 84° 80° (E) 588 4.3 -15.2°
Drops below altitude 10° 21:29:29 10° 350° (N) 1,888 7.1 -16.3°
Sets 21:31:38 0° 350° (N) 2,784 8.0 -16.8°
